TimeEST,TemperatureF,Dew PointF,Humidity,Sea Level PressureIn,VisibilityMPH,Wind Direction,Wind SpeedMPH,Gust SpeedMPH,PrecipitationIn,Events,Conditions,WindDirDegrees,DateUTC
12:29 AM,69.8,68.0,94,29.92,2.5,SW,3.5,-,0.02,Rain,Rain,220,2013-11-18 05:29:00
12:53 AM,69.1,69.1,100,29.90,5.0,SW,3.5,-,0.08,Rain,Light Rain,230,2013-11-18 05:53:00
1:10 AM,69.8,68.0,94,29.91,6.0,Variable,3.5,-,0.00,,Mostly Cloudy,0,2013-11-18 06:10:00
1:53 AM,69.1,68.0,96,29.88,5.0,Calm,Calm,-,0.00,,Overcast,0,2013-11-18 06:53:00
2:17 AM,62.6,57.2,82,29.92,10.0,NNW,11.5,28.8,0.00,Rain,Light Rain,340,2013-11-18 07:17:00
2:53 AM,60.1,57.9,93,29.91,10.0,NE,5.8,-,0.00,,Mostly Cloudy,40,2013-11-18 07:53:00
3:53 AM,60.1,57.0,90,29.93,10.0,Calm,Calm,-,0.00,,Overcast,0,2013-11-18 08:53:00
4:53 AM,61.0,57.0,87,29.94,10.0,Calm,Calm,-,N/A,,Overcast,0,2013-11-18 09:53:00
5:53 AM,60.1,57.0,90,29.95,10.0,Calm,Calm,-,N/A,,Overcast,0,2013-11-18 10:53:00
6:53 AM,57.9,57.9,100,29.97,10.0,Calm,Calm,-,N/A,,Overcast,0,2013-11-18 11:53:00
7:53 AM,60.1,55.0,83,29.97,10.0,NNW,5.8,-,N/A,,Mostly Cloudy,330,2013-11-18 12:53:00
8:53 AM,63.0,55.0,75,29.98,10.0,NNE,4.6,-,N/A,,Clear,20,2013-11-18 13:53:00
9:53 AM,64.0,45.0,50,30.00,10.0,North,6.9,-,N/A,,Clear,10,2013-11-18 14:53:00
10:53 AM,66.0,41.0,40,30.02,10.0,North,8.1,-,N/A,,Clear,350,2013-11-18 15:53:00
11:53 AM,66.0,37.0,34,30.03,10.0,NNW,15.0,-,N/A,,Clear,330,2013-11-18 16:53:00
12:53 PM,69.1,36.0,30,30.02,10.0,North,12.7,17.3,N/A,,Clear,350,2013-11-18 17:53:00
1:53 PM,70.0,34.0,27,30.01,10.0,North,15.0,20.7,N/A,,Clear,350,2013-11-18 18:53:00
2:53 PM,69.1,33.1,26,30.01,10.0,NNW,9.2,17.3,N/A,,Clear,340,2013-11-18 19:53:00
3:53 PM,68.0,33.1,27,30.01,10.0,NNW,10.4,-,N/A,,Clear,340,2013-11-18 20:53:00
4:53 PM,64.0,34.0,33,30.02,10.0,North,10.4,-,N/A,,Clear,350,2013-11-18 21:53:00
5:53 PM,60.1,34.0,38,30.05,10.0,NW,5.8,-,N/A,,Clear,320,2013-11-18 22:53:00
6:53 PM,55.9,34.0,44,30.07,10.0,NNW,4.6,-,N/A,,Clear,330,2013-11-18 23:53:00
7:53 PM,55.9,34.0,44,30.09,10.0,North,10.4,-,N/A,,Clear,350,2013-11-19 00:53:00
8:53 PM,55.0,35.1,47,30.10,10.0,North,10.4,-,N/A,,Clear,350,2013-11-19 01:53:00
9:53 PM,53.1,35.1,50,30.11,10.0,North,9.2,-,N/A,,Clear,360,2013-11-19 02:53:00
10:53 PM,52.0,34.0,50,30.10,10.0,North,11.5,20.7,N/A,,Clear,350,2013-11-19 03:53:00
11:53 PM,51.1,33.1,50,30.09,10.0,North,13.8,19.6,N/A,,Clear,360,2013-11-19 04:53:00